Temp
-33 -33 -33 -33 -33 -33 -32 -32 -32 -33 -33 -33 -33 -33 -33 -33 -32 -32 -32 -31 -31 -31 -30 -30 -29 -28 -28 -28 -27 -27 -27 -27 -26 -26 -26 -26 -26 -25 -25 -24 -24 -24 -24 -24 -24 -24 -24 -24 -24 -24 -24 -24 -24 -24 -25 -24 -23 -23 -23 -23 -24 -24 -24
-33 -33 -33 -33 -33 -33 -32 -32 -32 -33 -33 -33 -33 -33 -33 -33 -33 -33 -32 -32 -32 -31 -31 -31 -30 -30 -29 -29 -28 -28 -28 -27 -27 -26 -26 -26 -26 -26 -25 -25 -25 -24 -24 -24 -24 -24 -24 -24 -24 -24 -24 -24 -24 -24 -24 -24 -24 -23 -23 -23 -24 -24 -24
-33 -33 -33 -33 -33 -33 -32 -32 -32 -32 -33 -33 -33 -33 -33 -33 -33 -33 -33 -33 -32 -32 -32 -31 -31 -30 -30 -30 -29 -29 -28 -28 -27 -27 -26 -27 -26 -26 -26 -25 -25 -25 -24 -24 -24 -24 -24 -24 -24 -24 -24 -24 -24 -24 -24 -24 -24 -24 -24 -23 -23 -24 -24
-33 -32 -32 -32 -32 -32 -32 -32 -32 -32 -32 -33 -33 -33 -33 -33 -33 -33 -33 -33 -33 -33 -32 -32 -31 -31 -31 -30 -30 -30 -29 -28 -28 -27 -27 -27 -27 -27 -26 -26 -25 -25 -25 -24 -24 -24 -24 -24 -24 -24 -24 -24 -24 -24 -24 -24 -24 -24 -24 -23 -23 -24 -24
-32 -32 -32 -32 -32 -32 -32 -32 -32 -32 -32 -32 -33 -33 -33 -33 -33 -33 -33 -33 -33 -33 -33 -32 -32 -31 -31 -31 -31 -30 -30 -29 -28 -28 -27 -27 -27 -27 -27 -27 -26 -26 -25 -25 -24 -24 -24 -24 -24 -24 -24 -24 -24 -24 -24 -24 -24 -24 -24 -24 -24 -24 -24
-32 -32 -32 -32 -32 -32 -32 -32 -32 -32 -32 -33 -33 -33 -33 -33 -33 -33 -33 -33 -33 -33 -33 -33 -32 -32 -31 -31 -31 -31 -30 -30 -29 -28 -28 -27 -27 -27 -27 -27 -27 -26 -26 -25 -25 -25 -25 -24 -24 -24 -24 -24 -24 -24 -24 -24 -24 -24 -24 -24 -24 -24 -24
-32 -32 -32 -32 -32 -32 -32 -32 -32 -32 -32 -32 -33 -33 -33 -33 -33 -33 -33 -33 -33 -33 -33 -33 -33 -33 -32 -32 -31 -31 -31 -31 -30 -29 -28 -28 -27 -27 -27 -27 -28 -27 -27 -26 -26 -25 -25 -25 -25 -25 -24 -24 -24 -24 -25 -25 -24 -24 -24 -24 -24 -24 -24
-32 -32 -32 -32 -32 -32 -32 -32 -32 -32 -32 -32 -32 -32 -33 -33 -33 -33 -33 -33 -33 -34 -34 -33 -33 -33 -33 -32 -32 -31 -31 -31 -31 -30 -29 -29 -28 -28 -27 -27 -27 -28 -28 -27 -26 -26 -25 -25 -25 -25 -25 -25 -24 -24 -25 -25 -25 -24 -24 -24 -24 -24 -25
-32 -32 -32 -32 -32 -32 -32 -32 -32 -32 -32 -32 -32 -32 -32 -32 -33 -33 -33 -33 -33 -33 -34 -34 -33 -33 -33 -33 -32 -32 -32 -31 -31 -31 -30 -30 -29 -28 -28 -28 -27 -27 -27 -28 -27 -27 -26 -26 -25 -25 -25 -25 -25 -25 -25 -25 -25 -25 -25 -25 -25 -25 -25
-32 -32 -32 -32 -32 -32 -32 -32 -32 -32 -32 -32 -32 -32 -32 -32 -32 -33 -33 -33 -33 -33 -33 -33 -34 -34 -33 -33 -33 -33 -32 -32 -32 -31 -31 -30 -30 -29 -29 -28 -28 -28 -27 -27 -27 -27 -27 -27 -26 -25 -25 -25 -25 -25 -25 -25 -25 -25 -25 -25 -25 -25 -25
-32 -32 -32 -32 -32 -32 -32 -32 -32 -32 -32 -32 -32 -32 -32 -32 -32 -32 -32 -33 -33 -33 -33 -33 -33 -34 -34 -33 -33 -33 -33 -33 -32 -32 -31 -31 -31 -30 -29 -29 -28 -28 -28 -28 -27 -27 -27 -27 -27 -26 -26 -26 -26 -25 -25 -25 -25 -25 -25 -25 -25 -25 -25
-32 -32 -32 -32 -32 -32 -32 -32 -32 -32 -32 -32 -32 -32 -32 -32 -32 -32 -32 -33 -33 -33 -33 -33 -33 -33 -33 -34 -33 -33 -33 -33 -33 -32 -32 -31 -31 -31 -30 -30 -29 -29 -28 -28 -28 -27 -27 -27 -27 -27 -27 -26 -26 -26 -26 -26 -26 -25 -26 -26 -26 -26 -26
-32 -32 -32 -32 -32 -32 -32 -32 -32 -32 -32 -32 -32 -32 -32 -32 -32 -32 -32 -33 -33 -33 -33 -33 -33 -33 -33 -33 -33 -33 -33 -33 -33 -33 -32 -32 -32 -31 -31 -30 -30 -29 -29 -29 -28 -28 -27 -27 -27 -27 -27 -27 -27 -27 -27 -26 -26 -26 -26 -26 -26 -26 -26
-32 -32 -32 -32 -32 -32 -32 -32 -32 -32 -32 -32 -32 -32 -32 -32 -32 -32 -33 -33 -33 -33 -33 -33 -33 -33 -33 -33 -33 -33 -33 -33 -33 -33 -33 -32 -32 -32 -31 -31 -31 -30 -30 -29 -29 -28 -28 -28 -27 -27 -27 -27 -27 -27 -27 -27 -27 -27 -27 -27 -27 -27 -27
-33 -33 -32 -32 -33 -33 -33 -33 -32 -33 -33 -33 -33 -33 -33 -33 -33 -33 -33 -33 -33 -33 -33 -33 -33 -33 -33 -33 -33 -33 -33 -33 -33 -33 -33 -33 -32 -32 -32 -32 -31 -31 -30 -30 -29 -29 -29 -28 -28 -27 -27 -27 -27 -27 -27 -27 -27 -27 -27 -27 -27 -27 -27
-33 -33 -33 -33 -33 -33 -33 -33 -33 -33 -33 -33 -33 -33 -33 -33 -33 -33 -33 -33 -33 -33 -33 -33 -33 -33 -33 -33 -33 -33 -33 -33 -33 -33 -33 -33 -33 -33 -32 -32 -32 -32 -31 -31 -30 -30 -29 -29 -29 -28 -28 -27 -27 -27 -27 -27 -28 -28 -28 -27 -27 -27 -27
-34 -34 -34 -34 -34 -34 -33 -33 -33 -33 -33 -33 -33 -33 -33 -33 -33 -33 -33 -33 -33 -33 -33 -33 -33 -33 -33 -33 -33 -33 -33 -33 -33 -33 -33 -33 -33 -33 -33 -32 -32 -32 -32 -31 -31 -31 -30 -30 -30 -29 -29 -28 -28 -28 -27 -27 -27 -28 -28 -28 -28 -28 -28
-34 -34 -34 -34 -34 -34 -34 -34 -34 -34 -33 -33 -33 -33 -33 -33 -33 -33 -33 -33 -33 -33 -33 -33 -33 -33 -33 -33 -33 -33 -33 -33 -33 -33 -33 -33 -33 -33 -32 -32 -32 -32 -32 -32 -32 -31 -31 -31 -31 -30 -30 -29 -29 -29 -28 -28 -28 -28 -28 -28 -28 -28 -28
-35 -35 -35 -35 -35 -35 -35 -35 -34 -34 -34 -34 -34 -34 -34 -34 -34 -34 -34 -34 -34 -34 -33 -33 -33 -33 -33 -33 -34 -34 -33 -33 -33 -33 -33 -33 -33 -33 -32 -33 -33 -33 -32 -32 -32 -32 -32 -32 -31 -31 -31 -30 -30 -30 -29 -29 -29 -28 -28 -28 -28 -29 -29
-35 -35 -35 -35 -35 -35 -35 -35 -35 -35 -35 -35 -34 -34 -34 -34 -34 -34 -34 -34 -34 -34 -34 -34 -34 -33 -33 -33 -33 -33 -33 -33 -33 -33 -33 -33 -33 -33 -33 -33 -33 -33 -33 -33 -32 -32 -32 -32 -32 -31 -31 -31 -31 -30 -30 -30 -30 -29 -29 -29 -29 -29 -29
-35 -35 -35 -35 -35 -35 -35 -35 -35 -35 -35 -35 -35 -35 -35 -35 -35 -35 -35 -35 -34 -34 -34 -34 -34 -34 -34 -34 -34 -34 -34 -33 -33 -33 -33 -33 -33 -33 -33 -33 -33 -33 -33 -33 -32 -32 -32 -32 -32 -32 -31 -31 -31 -31 -31 -31 -30 -30 -30 -30 -30 -30 -30
-35 -35 -35 -35 -35 -35 -35 -35 -35 -35 -35 -35 -35 -35 -35 -35 -35 -35 -35 -35 -35 -35 -35 -34 -34 -34 -34 -34 -34 -34 -34 -34 -34 -34 -34 -34 -34 -34 -34 -34 -33 -33 -33 -33 -32 -32 -32 -32 -32 -32 -31 -31 -31 -31 -31 -31 -31 -31 -31 -31 -31 -30 -30
-35 -35 -35 -35 -35 -35 -35 -35 -35 -35 -35 -35 -35 -35 -35 -35 -35 -35 -35 -35 -35 -35 -34 -34 -34 -34 -34 -34 -34 -34 -34 -34 -35 -35 -35 -35 -35 -35 -35 -35 -35 -34 -34 -34 -33 -33 -33 -33 -32 -32 -32 -32 -31 -31 -31 -31 -31 -31 -31 -31 -31 -31 -30
-35 -35 -35 -35 -35 -35 -35 -35 -34 -34 -34 -34 -34 -34 -34 -34 -34 -34 -34 -34 -34 -34 -34 -34 -34 -34 -34 -34 -34 -34 -34 -34 -34 -35 -35 -35 -35 -35 -35 -35 -35 -35 -35 -35 -35 -34 -34 -33 -33 -33 -32 -32 -32 -32 -31 -31 -31 -31 -31 -31 -30 -30 -30
-34 -34 -34 -34 -34 -34 -34 -34 -34 -34 -34 -34 -34 -34 -34 -34 -34 -34 -34 -34 -34 -34 -34 -34 -34 -34 -34 -34 -34 -34 -34 -34 -34 -34 -34 -35 -35 -35 -35 -35 -35 -35 -35 -35 -35 -35 -35 -35 -34 -34 -34 -33 -33 -32 -32 -31 -31 -30 -30 -30 -30 -30 -30
-34 -34 -34 -34 -34 -34 -34 -34 -34 -34 -34 -34 -34 -34 -34 -34 -34 -34 -34 -34 -34 -33 -33 -33 -33 -33 -33 -33 -34 -34 -34 -34 -34 -34 -34 -34 -34 -35 -35 -35 -35 -36 -36 -36 -36 -36 -36 -35 -35 -35 -35 -35 -34 -33 -32 -31 -31 -30 -30 -30 -30 -31 -31
-34 -34 -34 -34 -34 -33 -34 -34 -34 -34 -34 -34 -34 -34 -34 -34 -34 -34 -33 -33 -33 -33 -33 -33 -33 -33 -33 -33 -33 -33 -33 -33 -34 -34 -34 -34 -34 -35 -35 -35 -36 -36 -36 -36 -36 -36 -36 -36 -36 -36 -36 -35 -34 -33 -32 -31 -31 -31 -31 -31 -31 -31 -31
-33 -33 -33 -33 -33 -33 -33 -33 -33 -34 -34 -34 -34 -34 -34 -34 -34 -33 -33 -33 -33 -33 -33 -33 -33 -33 -33 -33 -33 -33 -33 -33 -33 -33 -34 -34 -34 -35 -35 -35 -36 -36 -36 -36 -36 -36 -36 -36 -36 -36 -36 -35 -35 -34 -33 -32 -32 -31 -31 -31 -31 -31 -32
-33 -33 -33 -33 -33 -33 -33 -33 -33 -33 -33 -33 -33 -33 -33 -33 -33 -33 -33 -33 -33 -33 -33 -33 -33 -33 -32 -32 -32 -33 -33 -33 -33 -33 -33 -34 -34 -35 -35 -36 -36 -37 -37 -36 -36 -36 -36 -36 -36 -36 -36 -35 -35 -34 -33 -33 -32 -32 -32 -32 -32 -32 -32
-33 -33 -33 -33 -33 -33 -33 -33 -33 -33 -33 -33 -33 -33 -33 -33 -33 -33 -33 -33 -33 -33 -33 -33 -33 -32 -32 -32 -32 -32 -33 -33 -33 -33 -33 -34 -34 -35 -36 -36 -36 -36 -36 -36 -36 -36 -36 -36 -36 -36 -35 -35 -35 -34 -33 -33 -32 -32 -32 -32 -32 -32 -32
-33 -33 -33 -32 -32 -33 -33 -33 -33 -33 -33 -33 -33 -33 -33 -33 -33 -33 -33 -33 -33 -33 -33 -33 -32 -32 -32 -32 -32 -32 -33 -33 -33 -33 -33 -34 -34 -35 -35 -36 -36 -36 -36 -36 -36 -36 -36 -36 -36 -35 -35 -35 -34 -34 -33 -33 -32 -32 -32 -32 -32 -32 -32
-33 -33 -32 -32 -32 -32 -32 -33 -33 -33 -33 -33 -33 -33 -33 -33 -33 -33 -33 -33 -33 -33 -33 -32 -32 -32 -32 -32 -32 -32 -32 -32 -33 -33 -33 -33 -33 -34 -34 -35 -35 -35 -35 -35 -35 -35 -35 -35 -35 -35 -35 -34 -34 -34 -33 -33 -33 -33 -33 -33 -33 -32 -32
-33 -33 -32 -32 -32 -32 -32 -32 -33 -33 -33 -33 -33 -33 -33 -33 -33 -33 -33 -33 -33 -33 -32 -32 -32 -32 -32 -32 -32 -32 -32 -32 -32 -32 -33 -33 -33 -33 -33 -34 -34 -34 -34 -34 -34 -34 -34 -34 -34 -34 -34 -34 -34 -33 -33 -33 -33 -33 -32 -32 -32 -32 -32
-33 -33 -32 -32 -32 -32 -32 -32 -32 -32 -32 -32 -33 -33 -33 -33 -33 -32 -33 -33 -33 -32 -32 -32 -32 -32 -32 -32 -32 -32 -32 -32 -32 -32 -32 -32 -33 -33 -33 -33 -33 -33 -33 -33 -33 -33 -33 -33 -33 -33 -33 -33 -33 -33 -33 -32 -32 -32 -32 -32 -32 -32 -32
-33 -33 -33 -32 -32 -32 -32 -32 -32 -32 -32 -32 -32 -32 -32 -32 -32 -32 -32 -32 -32 -32 -32 -32 -32 -32 -32 -32 -32 -32 -32 -32 -32 -32 -32 -32 -32 -32 -32 -32 -33 -33 -33 -33 -33 -33 -33 -33 -33 -33 -33 -33 -32 -32 -32 -32 -32 -32 -32 -32 -32 -32 -32
-33 -33 -33 -33 -33 -32 -32 -32 -32 -32 -32 -32 -32 -32 -32 -32 -32 -32 -32 -32 -32 -32 -32 -32 -32 -32 -32 -32 -32 -32 -32 -32 -32 -32 -32 -32 -32 -32 -32 -32 -32 -32 -32 -32 -32 -32 -32 -32 -33 -32 -32 -32 -32 -32 -32 -32 -32 -32 -32 -32 -32 -32 -32
Height
5286 5287 5289 5290 5292 5293 5295 5296 5298 5299 5300 5301 5303 5305 5307 5308 5309 5311 5315 5318 5322 5328 5333 5339 5345 5351 5358 5365 5372 5379 5387 5393 5398 5403 5407 5411 5417 5423 5430 5436 5441 5452 5463 5467 5470 5475 5480 5484 5487 5490 5495 5498 5499 5502 5504 5507 5513 5517 5519 5522 5527 5531 5534
5281 5282 5284 5285 5287 5288 5290 5291 5293 5293 5294 5296 5298 5299 5301 5302 5303 5305 5308 5311 5314 5318 5322 5328 5334 5341 5347 5353 5359 5366 5374 5381 5388 5393 5397 5401 5406 5412 5419 5426 5432 5441 5451 5456 5460 5465 5468 5473 5477 5481 5487 5490 5492 5494 5496 5499 5504 5508 5511 5514 5518 5522 5525
5276 5277 5279 5280 5282 5283 5285 5286 5287 5288 5289 5291 5292 5294 5295 5297 5298 5300 5302 5304 5307 5310 5312 5317 5322 5330 5336 5342 5347 5354 5361 5369 5377 5383 5388 5392 5397 5402 5409 5415 5421 5430 5439 5445 5450 5454 5458 5463 5468 5473 5477 5480 5483 5485 5485 5489 5495 5499 5502 5505 5509 5513 5516
5271 5272 5274 5275 5277 5279 5280 5281 5282 5284 5285 5286 5288 5289 5291 5292 5293 5295 5296 5298 5300 5302 5304 5307 5313 5320 5326 5331 5336 5343 5349 5357 5365 5372 5378 5383 5389 5394 5399 5405 5410 5418 5426 5433 5438 5443 5448 5453 5457 5462 5466 5469 5472 5474 5476 5480 5485 5490 5493 5497 5501 5504 5506
5267 5268 5269 5271 5273 5274 5275 5276 5277 5279 5280 5282 5283 5285 5286 5287 5289 5290 5291 5293 5294 5296 5298 5300 5305 5310 5315 5320 5326 5332 5338 5345 5353 5360 5367 5373 5380 5386 5391 5395 5400 5406 5413 5420 5427 5434 5438 5442 5446 5451 5455 5459 5462 5465 5467 5470 5475 5481 5485 5488 5491 5494 5497
5263 5264 5265 5266 5268 5269 5271 5271 5273 5274 5275 5277 5279 5280 5282 5283 5284 5286 5287 5288 5289 5291 5292 5295 5298 5302 5306 5311 5317 5323 5329 5335 5342 5349 5357 5364 5370 5377 5382 5386 5390 5395 5401 5408 5416 5423 5427 5431 5435 5440 5445 5449 5452 5456 5458 5461 5466 5471 5475 5479 5482 5486 5489
5259 5259 5260 5261 5263 5264 5265 5266 5268 5269 5271 5272 5274 5275 5277 5279 5280 5281 5283 5284 5285 5287 5288 5290 5292 5295 5298 5303 5309 5315 5320 5326 5331 5338 5346 5353 5360 5366 5371 5376 5380 5385 5390 5396 5404 5411 5416 5421 5425 5430 5434 5438 5441 5444 5448 5452 5457 5462 5466 5470 5474 5478 5480
5255 5255 5256 5257 5258 5260 5261 5262 5263 5264 5266 5267 5269 5270 5272 5274 5276 5277 5279 5280 5282 5283 5284 5286 5287 5290 5293 5297 5302 5307 5312 5317 5323 5328 5335 5342 5349 5354 5359 5365 5371 5376 5381 5386 5393 5400 5406 5410 5415 5419 5424 5428 5431 5436 5442 5446 5450 5454 5458 5461 5465 5468 5470
5251 5252 5252 5253 5254 5255 5256 5258 5259 5260 5261 5263 5264 5266 5268 5269 5271 5273 5275 5276 5277 5279 5280 5282 5283 5285 5288 5291 5295 5300 5304 5309 5315 5320 5326 5333 5338 5344 5349 5354 5360 5366 5372 5378 5384 5390 5395 5400 5406 5411 5415 5420 5425 5431 5436 5438 5441 5445 5449 5452 5455 5457 5458
5247 5248 5248 5249 5250 5251 5252 5253 5255 5256 5257 5258 5260 5261 5263 5265 5267 5269 5270 5272 5273 5275 5276 5278 5280 5281 5283 5286 5289 5293 5297 5302 5307 5312 5318 5323 5328 5333 5339 5344 5349 5356 5363 5369 5374 5381 5386 5391 5397 5403 5408 5413 5417 5421 5423 5426 5431 5436 5439 5441 5443 5446 5449
5243 5244 5245 5245 5246 5247 5248 5249 5251 5252 5253 5254 5255 5257 5259 5261 5263 5264 5266 5268 5269 5271 5273 5275 5277 5278 5280 5282 5285 5287 5291 5295 5299 5304 5309 5314 5318 5324 5329 5334 5339 5345 5352 5358 5365 5371 5377 5383 5389 5394 5398 5402 5406 5409 5413 5417 5421 5424 5427 5431 5434 5437 5441
5239 5240 5241 5241 5242 5243 5244 5245 5246 5247 5248 5250 5251 5253 5255 5256 5258 5260 5262 5264 5266 5268 5269 5271 5273 5275 5277 5279 5281 5284 5287 5290 5294 5298 5302 5306 5310 5315 5320 5325 5330 5336 5342 5348 5354 5360 5367 5375 5381 5384 5388 5392 5396 5399 5402 5406 5410 5414 5418 5422 5425 5429 5432
5235 5236 5236 5237 5238 5239 5240 5241 5242 5243 5244 5246 5247 5248 5250 5252 5254 5256 5258 5260 5262 5264 5266 5267 5269 5271 5273 5275 5277 5280 5283 5285 5288 5292 5295 5299 5303 5307 5312 5317 5322 5328 5332 5337 5342 5348 5356 5365 5370 5374 5378 5382 5385 5388 5391 5395 5400 5404 5408 5412 5415 5418 5421
5231 5232 5232 5233 5234 5235 5236 5237 5238 5239 5240 5242 5243 5244 5246 5248 5250 5252 5254 5256 5258 5260 5262 5264 5265 5267 5269 5271 5273 5276 5278 5281 5284 5286 5289 5293 5296 5301 5305 5309 5314 5318 5323 5328 5333 5338 5347 5354 5358 5363 5367 5370 5373 5378 5382 5386 5390 5393 5396 5400 5403 5406 5408
5228 5228 5229 5229 5230 5231 5232 5233 5234 5236 5237 5239 5240 5241 5243 5245 5247 5249 5251 5253 5255 5256 5258 5260 5261 5263 5265 5267 5269 5271 5274 5276 5279 5281 5284 5287 5291 5295 5298 5302 5306 5310 5314 5318 5324 5330 5336 5341 5344 5349 5354 5358 5363 5368 5371 5374 5377 5380 5383 5387 5391 5394 5397
5226 5226 5226 5227 5227 5228 5229 5230 5231 5233 5235 5236 5237 5238 5240 5241 5244 5246 5248 5249 5251 5252 5254 5256 5257 5259 5261 5263 5265 5267 5269 5271 5273 5276 5279 5282 5285 5288 5291 5295 5298 5301 5305 5309 5314 5319 5324 5327 5331 5337 5342 5346 5351 5355 5359 5362 5366 5369 5374 5378 5382 5385 5388
5224 5224 5225 5225 5225 5226 5227 5228 5229 5230 5231 5233 5234 5235 5236 5238 5240 5241 5243 5245 5246 5248 5249 5251 5253 5254 5256 5258 5260 5262 5264 5265 5267 5270 5273 5276 5279 5282 5285 5289 5291 5293 5297 5301 5305 5309 5312 5315 5320 5326 5331 5335 5338 5342 5347 5352 5356 5361 5365 5368 5372 5376 5379
5223 5223 5223 5224 5224 5224 5225 5226 5226 5227 5228 5229 5231 5232 5233 5234 5236 5237 5239 5240 5242 5243 5244 5246 5247 5249 5251 5253 5255 5257 5258 5259 5262 5264 5267 5270 5273 5276 5279 5283 5284 5287 5290 5292 5295 5299 5302 5306 5310 5315 5319 5323 5327 5332 5337 5342 5346 5350 5354 5357 5362 5365 5368
5222 5222 5222 5222 5223 5223 5223 5224 5224 5225 5226 5226 5227 5228 5230 5231 5233 5234 5235 5236 5237 5238 5239 5241 5242 5243 5245 5247 5249 5250 5252 5253 5255 5258 5261 5264 5266 5269 5274 5276 5277 5279 5282 5284 5287 5291 5294 5297 5300 5304 5309 5312 5317 5322 5327 5331 5335 5339 5343 5347 5351 5354 5357
5221 5221 5221 5221 5221 5221 5222 5222 5222 5222 5223 5223 5224 5225 5226 5228 5229 5229 5230 5231 5232 5233 5234 5236 5237 5238 5240 5241 5243 5244 5246 5247 5249 5251 5254 5256 5259 5263 5267 5268 5269 5271 5273 5276 5279 5283 5286 5288 5292 5296 5300 5303 5308 5313 5316 5320 5324 5328 5332 5336 5339 5343 5346
5221 5221 5220 5220 5219 5219 5219 5219 5219 5220 5220 5221 5222 5223 5224 5225 5225 5226 5227 5228 5229 5230 5231 5232 5233 5234 5235 5236 5237 5239 5240 5241 5243 5245 5247 5249 5253 5256 5257 5258 5260 5263 5265 5268 5271 5275 5278 5281 5284 5289 5292 5296 5301 5304 5307 5310 5314 5317 5320 5324 5328 5332 5336
5220 5220 5219 5219 5219 5218 5218 5218 5218 5218 5219 5220 5221 5222 5223 5223 5224 5225 5225 5226 5227 5227 5228 5229 5230 5231 5231 5232 5233 5234 5236 5237 5238 5239 5241 5243 5246 5247 5247 5249 5252 5254 5257 5260 5263 5267 5270 5273 5277 5281 5285 5289 5293 5296 5298 5301 5304 5307 5311 5315 5319 5323 5327
5220 5220 5220 5219 5219 5219 5218 5218 5218 5218 5218 5219 5220 5221 5222 5223 5224 5224 5225 5225 5225 5226 5226 5227 5227 5228 5228 5229 5230 5231 5232 5233 5234 5235 5236 5238 5239 5239 5240 5242 5244 5246 5249 5252 5254 5258 5261 5264 5268 5272 5277 5281 5284 5287 5290 5293 5296 5300 5304 5307 5311 5315 5319
5221 5221 5220 5220 5220 5219 5219 5219 5219 5219 5219 5219 5220 5221 5221 5222 5223 5223 5224 5224 5224 5224 5225 5225 5225 5226 5226 5227 5227 5228 5229 5229 5230 5231 5232 5233 5233 5234 5236 5238 5239 5241 5242 5244 5246 5249 5252 5256 5259 5263 5268 5272 5275 5278 5281 5285 5289 5293 5297 5301 5305 5308 5311
5222 5222 5221 5221 5220 5220 5220 5220 5219 5219 5220 5220 5220 5220 5221 5221 5222 5222 5223 5223 5223 5223 5223 5223 5224 5224 5224 5224 5225 5225 5226 5226 5226 5227 5228 5228 5229 5231 5232 5233 5234 5235 5236 5238 5239 5242 5245 5248 5252 5255 5258 5262 5265 5269 5273 5278 5283 5287 5292 5296 5299 5302 5305
5223 5222 5222 5221 5221 5220 5220 5220 5220 5220 5220 5220 5220 5220 5221 5221 5222 5222 5222 5222 5222 5222 5222 5222 5222 5222 5222 5222 5222 5223 5223 5223 5223 5224 5224 5224 5225 5226 5227 5227 5228 5229 5230 5231 5233 5236 5239 5242 5245 5247 5250 5253 5257 5261 5266 5272 5277 5282 5287 5291 5294 5297 5300
5224 5223 5222 5222 5221 5221 5221 5221 5221 5221 5220 5220 5220 5221 5221 5221 5221 5222 5222 5221 5221 5221 5220 5220 5220 5220 5220 5220 5220 5220 5220 5220 5220 5220 5220 5221 5221 5221 5221 5222 5222 5223 5223 5225 5227 5229 5232 5235 5238 5240 5243 5246 5250 5255 5260 5267 5272 5277 5281 5285 5288 5291 5294
5224 5223 5222 5222 5221 5221 5221 5221 5221 5220 5220 5220 5220 5221 5221 5221 5222 5222 5221 5221 5220 5220 5219 5219 5218 5218 5217 5217 5217 5218 5218 5218 5218 5217 5217 5217 5217 5217 5217 5217 5217 5217 5218 5219 5221 5223 5225 5229 5232 5235 5238 5242 5246 5251 5257 5262 5267 5272 5276 5280 5283 5286 5289
5225 5224 5223 5222 5221 5221 5221 5221 5221 5220 5220 5221 5221 5221 5221 5222 5222 5222 5221 5221 5220 5220 5219 5218 5217 5217 5216 5216 5216 5216 5216 5216 5215 5215 5214 5213 5213 5213 5214 5214 5213 5213 5214 5215 5217 5219 5222 5225 5229 5232 5236 5240 5244 5249 5254 5258 5263 5267 5271 5275 5278 5282 5285
5226 5224 5223 5223 5222 5221 5221 5221 5221 5221 5221 5221 5221 5222 5222 5222 5222 5222 5221 5221 5221 5220 5219 5219 5218 5217 5216 5215 5215 5215 5214 5214 5214 5214 5213 5212 5212 5211 5211 5211 5211 5211 5211 5213 5216 5218 5221 5224 5227 5231 5234 5238 5242 5246 5250 5255 5259 5263 5267 5271 5274 5278 5282
5227 5226 5225 5224 5223 5222 5222 5221 5221 5221 5222 5222 5222 5222 5223 5223 5223 5222 5222 5222 5221 5221 5220 5219 5218 5217 5217 5216 5215 5214 5214 5214 5214 5214 5213 5213 5212 5211 5211 5211 5210 5211 5211 5213 5215 5217 5220 5223 5226 5230 5233 5236 5240 5243 5247 5252 5256 5260 5264 5268 5272 5276 5279
5229 5228 5227 5226 5225 5225 5224 5223 5223 5223 5223 5223 5223 5224 5224 5224 5224 5223 5223 5222 5222 5221 5221 5220 5219 5218 5217 5217 5216 5215 5215 5214 5214 5214 5214 5213 5213 5212 5211 5211 5212 5212 5213 5214 5216 5218 5221 5224 5227 5230 5233 5236 5239 5243 5247 5251 5255 5259 5263 5267 5270 5274 5277
5231 5230 5229 5228 5227 5227 5226 5225 5225 5225 5225 5225 5225 5225 5224 5224 5224 5224 5223 5223 5223 5222 5222 5221 5220 5219 5219 5218 5217 5216 5216 5215 5215 5215 5215 5215 5214 5213 5213 5213 5213 5214 5215 5217 5218 5220 5223 5225 5228 5231 5234 5237 5240 5244 5247 5251 5255 5259 5262 5266 5268 5271 5274
5232 5231 5231 5230 5229 5228 5228 5227 5227 5226 5226 5226 5225 5225 5225 5225 5224 5224 5224 5223 5223 5223 5222 5222 5221 5220 5220 5219 5218 5218 5217 5216 5216 5216 5216 5216 5216 5215 5215 5215 5216 5216 5217 5219 5220 5222 5225 5227 5230 5232 5235 5238 5241 5245 5248 5251 5255 5258 5261 5263 5266 5268 5270
5234 5233 5232 5231 5230 5229 5229 5228 5228 5227 5227 5226 5226 5225 5225 5225 5224 5224 5224 5224 5223 5223 5223 5222 5222 5221 5221 5220 5220 5219 5218 5218 5218 5217 5217 5217 5217 5217 5218 5218 5218 5219 5220 5221 5223 5225 5227 5229 5231 5234 5236 5239 5242 5245 5248 5251 5253 5256 5258 5260 5262 5264 5266
5235 5234 5233 5232 5230 5229 5229 5228 5228 5227 5227 5226 5226 5225 5225 5224 5224 5224 5224 5224 5224 5224 5223 5223 5222 5222 5222 5221 5221 5220 5220 5219 5219 5219 5219 5219 5219 5219 5219 5220 5221 5222 5223 5224 5226 5227 5229 5231 5233 5236 5238 5240 5243 5245 5248 5250 5252 5254 5256 5258 5260 5261 5262
Wind_Speed
40 41 41 41 40 38 37 35 35 36 37 36 37 40 43 46 49 53 58 66 73 80 88 95 101 105 107 108 108 107 105 103 101 100 101 103 103 101 99 96 93 91 87 83 82 83 82 80 78 77 76 78 80 80 80 78 73 70 70 68 65 65 67
38 39 39 39 39 37 34 33 33 33 34 33 33 35 38 41 43 45 48 53 60 68 76 83 91 97 101 105 107 108 107 105 103 99 95 96 99 100 99 98 97 94 90 85 83 83 83 82 80 79 78 79 81 82 82 81 76 72 71 69 67 68 69
37 38 38 38 37 35 32 30 30 30 31 31 31 32 33 35 38 40 41 44 48 56 66 74 81 87 92 98 102 105 107 106 105 102 95 90 91 93 95 96 96 95 92 89 85 84 84 83 82 81 81 82 83 85 85 83 79 76 74 71 70 71 72
35 37 37 37 36 34 31 29 28 28 29 30 30 31 31 31 33 35 38 39 41 47 55 65 73 79 84 90 95 99 104 106 106 105 100 93 87 86 88 91 93 94 93 92 90 87 86 86 84 83 82 82 84 87 89 87 83 80 77 74 73 75 75
32 35 35 35 34 33 32 30 28 27 26 26 28 30 31 30 30 30 32 35 37 41 46 54 63 72 78 83 88 92 97 102 104 106 105 99 91 84 82 84 87 91 93 94 93 91 89 88 87 85 83 81 82 87 91 91 88 84 80 79 79 79 78
28 31 33 34 34 34 33 32 30 28 26 26 26 28 30 31 30 29 29 30 32 35 40 46 53 61 70 77 82 86 90 94 99 103 105 103 98 90 82 79 79 84 89 93 93 92 91 90 89 87 85 83 82 85 90 91 91 89 86 84 84 82 79
25 28 32 34 35 34 34 33 32 30 28 27 26 26 28 29 31 31 30 29 28 30 33 38 44 51 60 68 74 80 84 87 90 95 100 102 101 96 89 82 78 77 81 86 90 91 90 89 88 86 85 83 81 82 88 91 91 90 89 88 87 83 79
24 26 29 31 33 35 35 34 33 31 29 28 27 27 26 28 29 30 30 30 29 29 29 32 37 43 49 57 64 71 77 82 85 88 92 97 99 98 94 88 83 78 76 78 81 85 86 87 87 85 84 84 81 78 80 85 89 89 89 89 87 83 81
24 24 25 27 30 32 34 34 33 32 31 30 29 28 27 27 27 28 28 29 30 30 29 29 32 36 42 48 54 61 67 74 79 82 85 89 93 96 95 93 89 85 80 77 75 77 80 83 84 84 83 84 84 80 77 79 83 86 88 88 86 83 82
24 23 23 24 26 29 31 32 32 33 33 32 31 30 29 27 27 27 27 28 29 30 29 29 29 31 35 40 46 52 58 64 71 76 80 83 86 90 92 93 92 90 87 83 79 75 75 77 80 82 81 81 81 82 81 81 82 85 87 88 86 84 83
24 24 24 24 24 25 27 29 31 32 34 34 33 32 30 29 28 27 27 27 28 28 29 29 29 29 31 35 40 45 51 56 62 68 73 78 81 84 87 90 92 92 91 89 86 83 78 75 75 77 78 79 80 81 81 82 83 86 88 89 87 85 83
24 24 24 23 23 24 25 26 29 32 33 34 34 33 32 31 30 29 28 27 27 28 28 29 29 29 30 31 35 39 44 49 54 60 65 71 75 78 81 85 88 90 91 91 90 89 85 81 77 76 76 77 78 79 80 82 83 84 85 85 84 83 82
23 23 23 23 23 23 24 25 27 30 32 33 34 34 34 33 32 31 29 28 28 29 29 30 30 30 30 31 32 35 38 42 46 51 57 62 67 72 75 79 82 85 88 89 90 91 90 87 85 82 79 78 77 77 78 79 81 81 80 79 78 78 79
21 22 22 22 22 22 22 23 25 28 31 33 34 35 34 34 33 32 31 30 30 31 31 32 32 32 32 32 32 33 35 38 41 45 50 54 59 63 68 72 75 79 82 85 87 89 90 90 90 89 87 84 82 80 79 78 79 80 80 79 78 77 77
18 19 19 19 19 20 21 21 22 24 27 30 32 33 33 33 33 32 31 31 32 32 33 34 34 34 34 34 34 34 34 36 38 41 44 48 52 56 60 64 68 72 75 79 82 84 86 88 91 92 92 92 90 87 84 82 81 82 83 83 82 82 82
12 12 13 13 14 16 17 19 19 20 23 26 29 31 32 32 31 31 31 32 33 33 34 35 35 36 36 36 37 37 37 38 39 40 41 42 45 49 53 57 61 65 69 72 75 78 81 84 87 90 92 94 94 94 92 89 86 85 85 85 85 86 86
8 9 9 10 11 13 14 15 17 18 20 23 26 28 29 30 31 31 31 32 33 34 34 35 36 37 38 38 39 40 41 42 42 42 42 42 43 45 47 49 53 57 61 65 68 71 74 77 80 83 85 88 91 93 94 94 92 89 87 85 85 85 85
5 6 7 8 10 11 12 14 16 18 20 21 23 25 27 28 29 29 29 30 31 32 33 34 36 37 38 39 40 41 42 44 44 44 44 44 45 45 46 47 49 52 54 57 61 64 68 71 73 76 78 80 83 85 88 90 91 91 90 88 87 86 85
3 4 4 5 6 7 9 10 12 14 16 17 19 21 22 24 25 25 27 28 29 31 33 34 35 37 38 38 40 41 43 45 46 46 46 47 47 47 47 48 50 52 52 54 56 57 60 63 66 69 72 75 77 79 81 83 85 88 89 89 89 88 88
3 4 5 6 7 8 9 11 11 12 14 15 16 17 19 20 21 23 25 26 28 30 32 33 35 37 38 39 41 43 44 46 47 48 49 49 50 49 50 51 54 55 56 56 56 56 57 58 60 61 65 68 71 74 76 79 80 82 84 86 87 87 87
5 5 6 6 6 7 8 9 10 10 10 10 10 11 11 12 13 16 18 20 22 23 25 27 29 31 34 35 37 40 42 44 46 48 50 51 51 51 53 55 56 57 58 59 59 59 59 59 59 59 59 60 62 65 69 72 75 78 80 82 83 84 85
2 2 2 3 3 2 1 2 3 4 5 5 5 6 7 7 8 10 11 13 14 16 17 19 20 21 23 24 25 27 29 31 34 36 39 41 42 44 48 51 53 55 58 59 60 61 61 62 62 61 60 59 59 60 62 65 68 71 74 77 79 81 82
5 6 6 6 5 5 4 2 3 4 5 6 6 7 7 7 7 8 9 11 12 12 14 15 15 16 18 18 19 20 21 23 25 27 28 29 31 34 38 41 44 48 50 53 56 59 60 61 62 62 62 61 61 61 61 62 62 63 65 67 70 72 75
6 5 5 5 5 5 3 3 3 4 5 6 6 6 5 4 4 5 7 9 10 10 11 12 13 15 16 17 18 19 21 23 25 27 28 29 30 32 33 35 36 39 41 44 47 51 54 56 58 60 61 61 62 63 63 62 61 61 60 60 61 62 65
5 5 5 5 4 3 3 4 4 5 5 5 5 4 3 3 4 5 5 6 8 9 10 12 13 14 16 17 18 19 20 21 22 24 26 28 29 30 31 33 35 36 38 39 41 43 45 47 50 53 55 57 59 62 63 63 61 60 59 58 57 57 58
6 5 4 4 4 4 4 5 5 5 5 4 3 2 2 2 3 3 3 4 5 7 9 11 12 14 14 15 16 16 17 19 21 23 24 24 25 27 30 33 35 37 40 41 42 43 42 41 42 45 48 52 56 59 61 61 60 58 56 55 55 54 54
6 4 3 4 4 4 4 4 4 3 3 2 2 2 2 2 1 1 2 2 1 1 4 7 9 11 12 13 13 13 15 18 20 22 23 25 26 28 30 31 33 35 38 40 42 43 44 43 41 41 44 48 52 56 58 58 56 55 54 52 51 49 48
7 4 3 3 2 1 0 1 2 2 2 2 2 2 1 2 3 4 4 4 4 3 2 3 5 5 7 9 11 12 14 15 16 18 20 22 24 26 26 26 27 28 29 30 31 35 40 42 41 41 42 45 47 49 51 51 51 50 48 46 45 43 42
8 7 6 5 4 2 1 0 2 2 2 3 3 3 4 5 5 4 5 4 4 4 3 2 0 2 4 5 6 8 9 10 10 11 12 14 17 19 19 19 20 21 22 23 23 26 31 36 37 38 38 38 39 40 41 43 44 43 42 40 39 37 36
11 10 10 10 8 5 3 3 4 4 4 5 6 6 6 5 4 4 5 5 5 6 7 7 5 3 2 3 4 4 5 6 5 4 3 5 8 10 10 10 12 16 20 23 24 25 28 31 32 32 32 32 33 33 35 36 37 37 37 36 35 34 34
13 13 13 12 11 9 8 7 7 7 7 8 8 7 6 5 5 5 5 5 6 6 6 7 8 6 4 3 3 3 2 3 5 6 6 7 7 8 8 8 7 9 13 17 20 22 23 25 25 26 27 28 29 30 31 32 33 34 35 36 36 36 37
14 14 14 12 11 11 11 10 10 9 9 8 8 7 5 5 5 5 4 4 4 4 5 6 7 8 7 6 5 5 5 4 5 6 7 8 9 10 11 11 11 11 12 13 14 15 17 18 20 21 22 23 24 26 27 29 30 32 34 34 35 35 36
14 13 12 11 10 10 10 9 9 9 9 8 7 5 4 3 3 3 2 2 2 3 3 5 6 7 7 7 7 7 7 7 6 6 6 7 8 10 11 12 13 13 13 14 14 15 16 17 18 19 19 20 20 21 23 24 26 27 29 30 31 33 34
15 13 11 9 8 8 8 7 7 7 7 6 5 4 2 1 0 2 2 1 1 3 4 5 6 7 7 7 7 7 7 7 7 8 8 8 8 9 10 11 12 13 14 14 15 15 16 17 17 18 18 19 20 20 21 23 24 26 27 29 31 34 36
16 14 12 9 7 6 5 4 4 4 4 4 3 1 1 2 2 2 2 1 1 3 4 5 6 6 7 7 7 7 6 6 7 7 7 8 9 9 9 10 10 11 12 12 13 14 15 16 16 17 18 19 20 21 22 24 25 26 28 29 31 33 35
15 14 13 11 8 5 3 1 1 1 1 2 1 1 1 2 2 1 1 2 2 2 3 4 5 6 6 7 7 7 7 7 6 6 6 6 7 7 8 8 8 9 9 9 10 10 10 11 12 13 13 15 16 18 19 20 22 23 25 27 29 31 33
Wind_Direction
250 251 252 254 256 257 256 252 247 245 245 246 247 246 245 245 245 243 240 238 236 235 234 233 232 233 234 234 233 232 231 232 234 237 239 241 241 241 239 238 238 238 237 237 238 237 235 233 233 233 233 236 240 242 243 244 243 241 240 242 244 247 248
249 250 251 253 256 257 256 253 248 246 245 245 246 247 246 245 246 245 243 240 236 234 233 232 232 232 233 234 234 233 231 231 232 234 237 239 240 241 241 240 239 238 237 237 237 237 237 235 235 235 235 236 239 242 243 244 244 242 241 242 245 248 248
249 249 250 252 254 256 257 255 252 248 245 243 244 246 248 247 247 246 245 243 239 235 232 231 230 230 231 233 233 233 232 231 231 232 234 235 237 238 240 240 240 239 237 236 237 237 237 237 237 237 238 239 239 241 242 243 244 243 243 243 246 248 247
250 249 249 251 253 255 257 256 254 251 247 245 243 244 247 248 247 245 245 244 242 238 234 231 229 228 229 230 232 233 233 232 231 231 233 234 234 235 237 237 238 239 238 237 236 236 237 237 238 238 238 239 239 239 241 243 244 244 244 244 246 247 246
251 250 249 250 251 253 255 256 256 254 252 249 247 245 246 248 247 245 243 243 243 240 237 233 230 227 227 228 229 230 232 232 231 231 232 233 233 233 235 236 236 237 238 238 237 237 238 238 239 239 238 239 240 238 239 242 243 244 245 245 246 246 245
252 250 248 247 247 249 251 254 255 255 254 251 248 246 246 247 248 247 245 244 243 242 240 236 232 228 227 226 227 228 229 231 232 231 231 232 233 233 233 234 235 236 237 239 240 239 239 239 239 240 239 239 241 239 237 239 241 243 244 245 246 246 243
253 250 247 245 245 246 247 249 252 253 252 252 250 247 246 246 247 248 248 247 246 245 243 239 234 231 228 227 227 227 228 228 230 231 231 232 233 234 233 233 233 234 235 238 239 240 240 240 240 240 239 239 240 239 236 237 239 241 243 245 246 245 243
255 252 249 247 246 246 247 248 250 251 251 251 250 249 246 245 245 245 247 248 247 247 245 241 236 232 230 229 227 227 227 227 228 229 230 231 233 234 235 233 233 232 232 233 235 236 237 237 238 239 238 238 239 239 238 238 240 241 242 244 244 243 242
257 255 251 248 246 246 247 248 249 250 251 250 250 250 248 246 244 244 244 246 246 246 245 242 238 233 230 229 228 228 228 228 228 228 229 230 231 233 235 235 234 233 232 232 231 231 232 233 235 237 238 239 240 241 241 240 241 241 242 243 242 241 241
256 254 251 248 246 245 246 246 246 248 250 251 251 250 250 248 246 244 243 243 244 245 245 244 240 235 231 228 227 227 227 227 228 228 228 229 230 231 234 235 236 235 234 234 233 232 231 231 232 234 236 237 238 239 240 240 240 241 241 240 240 240 241
255 252 251 250 248 247 246 246 245 244 246 249 251 251 252 251 249 246 244 243 244 245 246 245 242 238 233 229 227 226 226 226 227 227 228 229 229 230 231 234 236 237 236 236 235 235 234 233 232 232 233 234 235 236 236 236 237 237 238 238 238 239 240
254 252 250 250 249 248 245 244 243 242 243 246 248 250 250 251 250 249 248 246 245 245 245 246 244 241 237 233 230 229 228 227 227 227 228 228 229 230 231 232 234 236 237 238 237 237 236 236 235 234 233 233 233 234 234 234 234 235 236 237 238 239 241
255 254 253 252 251 249 245 242 240 239 239 241 244 246 247 248 249 249 249 248 247 246 246 245 245 244 241 238 234 232 230 229 229 229 229 229 229 230 231 232 233 234 236 238 239 239 238 238 237 237 236 235 235 235 235 234 234 235 236 237 238 239 241
256 257 257 256 253 250 246 242 240 238 237 238 241 244 246 247 247 248 248 247 246 246 246 245 245 245 243 242 239 236 234 232 231 230 230 230 230 231 231 232 232 233 234 236 238 239 240 240 239 239 239 239 239 238 238 238 237 237 238 239 239 240 240
260 259 258 255 251 248 244 241 239 238 237 238 240 243 245 247 248 248 248 248 247 246 246 246 246 246 246 245 244 242 240 237 235 233 232 232 232 232 232 233 233 234 234 235 236 237 239 239 240 240 240 241 241 241 241 241 241 241 241 242 243 243 243
260 258 256 252 249 247 244 239 236 235 234 235 237 241 244 246 247 247 247 247 247 246 246 246 246 246 245 245 245 244 243 242 240 238 236 235 234 233 233 234 234 235 235 236 236 237 237 238 238 239 239 240 241 241 242 242 243 243 244 244 245 247 247
256 253 250 247 244 243 241 237 233 230 229 230 233 237 240 242 244 243 243 243 244 244 244 244 244 244 244 244 243 243 243 243 243 242 241 239 238 236 236 235 235 236 236 237 237 237 237 237 238 238 238 239 240 240 241 242 243 244 244 245 246 247 248
243 243 244 243 243 242 239 236 234 233 232 233 234 237 239 241 244 244 244 244 244 245 245 244 244 244 244 244 243 243 243 244 245 244 243 242 241 240 239 238 238 238 237 237 237 237 237 238 238 238 238 238 239 239 240 241 242 243 244 244 245 245 246
231 237 241 243 246 246 243 240 239 239 239 239 240 242 243 245 246 246 246 245 244 244 245 244 245 245 245 244 243 243 243 244 245 245 245 244 243 242 241 241 240 240 239 238 238 237 237 237 238 238 238 238 238 239 239 240 241 242 243 244 244 244 244
279 276 278 276 268 262 256 251 248 246 245 246 247 247 247 246 245 244 243 243 243 243 243 244 245 246 246 245 245 245 245 245 245 246 245 245 244 244 243 241 240 240 240 240 239 238 238 237 237 236 237 237 238 239 239 239 240 241 241 242 242 242 242
301 301 300 295 285 273 261 251 245 240 237 238 240 239 237 236 235 234 235 237 238 238 239 240 241 243 244 244 244 245 246 246 246 246 246 246 246 245 244 242 241 241 241 241 240 240 239 239 238 237 236 236 236 237 237 238 238 239 239 240 240 241 241
330 5 60 76 76 72 102 193 198 186 174 172 175 178 184 194 205 215 223 230 234 237 238 239 239 241 243 243 243 243 244 245 246 247 246 245 245 244 243 243 242 242 241 241 241 240 239 239 239 238 237 236 235 235 235 235 236 237 238 239 240 240 241
95 100 97 89 73 55 57 102 132 127 129 139 149 154 161 175 193 206 215 224 232 237 240 241 241 241 242 243 243 242 243 244 246 247 246 243 241 241 241 241 241 241 241 241 240 239 239 238 238 237 237 236 235 235 234 234 234 235 236 237 239 240 241
87 79 62 43 33 33 51 101 109 106 118 131 140 148 155 173 197 210 215 221 227 231 235 239 240 242 244 246 246 245 244 244 245 246 247 246 243 243 243 244 244 243 243 241 240 238 237 237 237 237 236 235 234 234 234 233 233 234 235 236 237 239 240
33 22 14 14 23 44 84 99 95 101 120 132 141 154 172 201 229 240 240 240 241 240 240 241 242 245 248 250 253 253 252 250 249 249 249 249 247 246 246 247 247 247 246 245 243 240 238 236 235 235 235 234 233 233 233 233 233 233 234 236 237 239 240
11 7 14 42 73 95 106 106 106 114 127 143 161 177 201 232 250 259 267 271 267 260 254 249 248 249 252 255 259 260 256 252 250 248 247 247 247 246 247 247 247 247 247 246 245 243 240 236 233 232 233 232 232 232 232 232 233 234 235 236 238 239 240
26 38 47 63 83 99 107 104 104 117 147 178 186 197 223 233 203 64 47 36 21 284 254 251 253 257 257 256 254 249 245 247 249 250 249 248 246 245 245 247 247 248 247 245 243 241 239 235 230 228 228 229 229 230 230 231 231 233 234 236 237 238 239
15 27 18 7 16 37 110 93 109 157 181 178 171 178 167 122 95 77 66 68 78 92 146 213 228 230 234 240 240 237 237 244 250 253 253 250 247 245 245 247 250 250 247 242 237 233 230 227 224 223 225 227 228 228 228 228 229 231 232 233 234 234 234
22 21 14 8 3 338 312 115 137 159 160 141 136 135 119 102 90 75 61 55 52 47 41 30 33 173 179 202 224 234 241 244 247 252 255 250 245 242 242 245 247 243 235 230 226 221 218 218 220 222 225 226 226 225 225 225 226 227 227 228 227 226 226
39 30 26 31 38 45 68 104 120 124 124 124 121 115 108 102 92 75 57 40 26 25 30 32 33 51 129 164 181 208 238 239 225 219 229 222 217 216 217 224 231 228 222 221 222 219 216 217 219 221 221 220 217 216 216 217 218 219 219 218 217 217 220
39 37 37 44 56 71 81 91 102 106 109 114 114 112 111 105 88 68 52 36 23 18 25 36 40 42 54 84 116 128 165 201 183 164 149 141 146 154 160 165 174 188 198 205 210 211 212 212 212 211 209 207 205 204 205 206 208 209 210 210 211 215 220
34 35 41 52 67 77 76 76 83 89 92 96 100 103 105 97 81 68 51 34 24 22 30 43 46 49 57 66 77 89 94 112 144 155 151 141 133 132 136 140 142 144 150 158 167 174 179 182 184 186 188 189 191 194 196 199 201 204 207 210 214 218 223
35 33 40 52 67 76 75 71 72 74 78 80 81 82 78 71 73 84 78 42 31 41 50 56 57 57 60 64 69 78 88 95 102 116 130 136 137 135 135 137 140 143 144 144 146 150 154 158 162 167 170 174 178 183 188 193 198 203 207 212 218 222 226
36 32 32 40 53 67 75 76 75 74 77 79 77 74 71 59 128 137 132 104 65 72 71 69 68 63 59 61 66 71 80 89 94 98 105 112 120 127 133 136 139 144 147 149 151 153 155 158 161 164 168 173 177 183 189 195 200 206 211 217 222 226 229
33 28 23 21 28 45 61 73 78 83 91 101 112 133 186 222 223 191 164 131 83 87 86 79 76 70 60 58 61 65 70 81 90 95 99 103 106 110 116 122 127 133 139 145 150 155 161 165 169 173 178 182 187 192 197 203 208 213 218 222 226 230 233
24 21 16 9 5 7 17 44 81 87 95 118 143 176 215 233 235 197 146 128 108 105 100 89 81 76 69 64 60 58 58 64 77 91 100 105 108 111 114 117 120 124 129 136 143 151 158 165 173 182 188 194 200 205 209 215 220 224 228 232 236 239 242